Regional Weather Roundup
Issued by NWS State College, PA

Home | Current Version | Previous Version | Graphics & Text | Print | Product List | Glossary Off
Versions: 1 2 3 4 5 6 7 8 9 10 11 12 13 14 15 16 17 18 19 20 21 22 23 24 25 26 27 28 29 30 31 32 33 34 35 36 37 38 39 40 41 42 43 44 45 46 47 48 49 50

000
ASUS41 KCTP 190803
RWRCTP

REGIONAL WEATHER ROUNDUP
NATIONAL WEATHER SERVICE STATE COLLEGE PA
300 AM EST SUN NOV 19 2017

Note: "fair" indicates few or no clouds below 12,000 feet with no
significant weather and/or obstructions to visibility.

* = STATION THAT DOES NOT REPORT PRECIPITATION /E.G. RAIN...SNOW...ETC/
    THUNDER OR FOG.

PAZ002>004-007>009-013>016-020>023-029>032-190900-
WESTERN PENNSYLVANIA

CITY           SKY/WX    TMP DP  RH WIND       PRES   REMARKS
ERIE           LGT RAIN  40  36  86 NW22G32   29.45R
MEADVILLE      LGT RAIN  37  36  96 NW20G29   29.43R
FRANKLIN*      LGT RAIN  37  35  92 NW13G23   29.41R
NEW CASTLE     LGT RAIN  38  37  97 W13G21    29.50R
BEAVER COUNTY  NOT AVBL
BUTLER*        NOT AVBL
PITTSBURGH INT LGT RAIN  37  35  92 W20G25    29.51R
PITTSBURGH     MIX PCPN  37  33  85 W23G37    29.50R
INDIANA*       CLOUDY    39  37  93 W17G30    29.45R FOG
LATROBE        RAIN      37  37 100 W21G30    29.51R
WASHINGTON CO* LGT RAIN  37  34  89 W18G30    29.60
$$

PAZ004>006-010>012-017>019-024>028-033>037-041-042-045-046-049>053-190900-
CENTRAL PENNSYLVANIA

CITY           SKY/WX    TMP DP  RH WIND       PRES   REMARKS
BRADFORD       LGT RAIN  40  38  93 NW22G37   29.21R FOG
DUBOIS         LGT RAIN  39  35  86 W26G38    29.29R FOG
CLEARFIELD     LGT RAIN  44  40  85 W15G28    29.28R
JOHNSTOWN      LGT RAIN  37  36  96 W22G37    29.37R
ALTOONA        CLOUDY    49  41  74 W30G44    29.32R
STATE COLLEGE  DRIZZLE   47  46  93 SW17G25   29.23R
WILLIAMSPORT   CLOUDY    53  46  77 S13G24    29.14F
SELINSGROVE    CLOUDY    51  49  92 SW5       29.19R
FT INDIANTOWN  CLOUDY    52  52 100 SW7       29.24F
CAPITAL CITY   CLOUDY    59  50  72 S20G32    29.23S
HARRISBURG     MOCLDY    59  52  77 SW8G22    29.24S
YORK           MOCLDY    57  53  86 S14G26    29.24F
$$

PAZ038>040-043-044-047-048-054-055-060>062-067>071-190900-
EASTERN PENNSYLVANIA

CITY           SKY/WX    TMP DP  RH WIND       PRES   REMARKS
SCRANTON       LGT RAIN  54  49  83 SW8G21    29.16F
MOUNT POCONO   LGT RAIN  49  49 100 SW23G39   29.22F
ALLENTOWN      RAIN      56  51  84 S17G26    29.25F
QUAKERTOWN*    CLOUDY    55  54  94 SW13G21   29.28F
READING        LGT RAIN  57  55  93 SW15G28   29.25F
LANCASTER      CLOUDY    57  54  89 S18G28    29.26F
COATESVILLE    LGT RAIN  55  55 100 S13       29.29F
POTTSTOWN      LGT RAIN  55  54  96 S9G17     29.29F
BLUE BELL      CLOUDY    54  54 100 SW7       29.32F
DOYLESTOWN     LGT RAIN  56  53  90 S8G20     29.29F
WILLOW GROVE   NOT AVBL
NORTH PHILA    LGT RAIN  60  55  83 SW12G21   29.34F
PHILADELPHIA   RAIN      59  55  87 SW16G28   29.34F
$$




USA.gov is the U.S. government's official web portal to all federal, state and local government web resources and services.